When you browse on this site, cookies collect data to enhance your experience and personalize the content and advertising you see.
Visit our Privacy Policy to learn more. By continuing to use the site, you agree to this use of cookies and data.
  • In Hungary
  • List of Countries
  • For 7 days
  • Water Temperature
  • Weather Map
  • News
  • Weather Widgets
  • user-avatar
    Login

    Hourly Weather Gari

    Today, 23 January, Thursday

    Time Temperature Precipitation Wind Pressure Humidity
    00:00 -6°C° 0 mm 6 mps 732 mmHg 81%
    01:00 -6°C° 0 mm 6 mps 733 mmHg 79%
    02:00 -8°C° 0 mm 6 mps 734 mmHg 76%
    03:00 -7°C° 0.1 mm 5 mps 734 mmHg 79%
    04:00 -8°C° 0.1 mm 5 mps 734 mmHg 81%
    05:00 -8°C° 0.1 mm 5 mps 735 mmHg 84%
    06:00 -8°C° 0.1 mm 5 mps 735 mmHg 81%
    07:00 -8°C° 0.1 mm 5 mps 736 mmHg 78%
    08:00 -10°C° 0.1 mm 5 mps 737 mmHg 75%
    09:00 -8°C° 0 mm 5 mps 737 mmHg 72%
    10:00 -8°C° 0 mm 5 mps 737 mmHg 70%
    11:00 -8°C° 0 mm 6 mps 738 mmHg 67%
    12:00 -8°C° 0 mm 6 mps 738 mmHg 68%
    13:00 -8°C° 0 mm 6 mps 738 mmHg 70%
    14:00 -8°C° 0 mm 6 mps 739 mmHg 71%
    15:00 -7°C° 0 mm 5 mps 739 mmHg 72%
    16:00 -7°C° 0 mm 5 mps 739 mmHg 74%
    17:00 -7°C° 0 mm 4 mps 739 mmHg 75%
    18:00 -7°C° 0 mm 4 mps 739 mmHg 77%
    19:00 -6°C° 0 mm 3 mps 739 mmHg 79%
    20:00 -6°C° 0 mm 2 mps 740 mmHg 80%
    21:00 -6°C° 0 mm 2 mps 739 mmHg 81%
    22:00 -5°C° 0 mm 2 mps 739 mmHg 82%
    23:00 -6°C° 0 mm 3 mps 739 mmHg 83%

    Tomorrow, 24 January, Friday

    Time Temperature Precipitation Wind Pressure Humidity
    00:00 -6°C° 0 mm 3 mps 739 mmHg 85%
    01:00 -5°C° 0 mm 3 mps 738 mmHg 86%
    02:00 -5°C° 0 mm 4 mps 738 mmHg 88%
    03:00 -4°C° 0 mm 4 mps 737 mmHg 87%
    04:00 -4°C° 0 mm 4 mps 736 mmHg 86%
    05:00 -3°C° 0 mm 4 mps 735 mmHg 84%
    06:00 -4°C° 0.3 mm 5 mps 734 mmHg 88%
    07:00 -4°C° 0.3 mm 5 mps 733 mmHg 92%
    08:00 -4°C° 0.3 mm 5 mps 733 mmHg 95%
    09:00 -2°C° 0.2 mm 5 mps 732 mmHg 95%
    10:00 -2°C° 0.2 mm 4 mps 731 mmHg 96%
    11:00 -1°C° 0.2 mm 4 mps 731 mmHg 96%
    12:00 0°C° 0.1 mm 4 mps 730 mmHg 96%
    13:00 0°C° 0.1 mm 4 mps 730 mmHg 95%
    14:00 0°C° 0.1 mm 4 mps 729 mmHg 95%
    15:00 0°C° 0.2 mm 4 mps 729 mmHg 96%
    16:00 0°C° 0.2 mm 5 mps 729 mmHg 96%
    17:00 0°C° 0.2 mm 5 mps 728 mmHg 96%
    18:00 0°C° 0.1 mm 5 mps 729 mmHg 93%
    19:00 -1°C° 0.1 mm 4 mps 729 mmHg 90%
    20:00 -1°C° 0.1 mm 4 mps 730 mmHg 87%
    21:00 -2°C° 0 mm 4 mps 730 mmHg 88%
    22:00 -2°C° 0 mm 4 mps 729 mmHg 89%
    23:00 -3°C° 0 mm 4 mps 729 mmHg 90%

    Day after tomorrow, 25 January, Saturday

    Time Temperature Precipitation Wind Pressure Humidity
    00:00 -2°C° 0 mm 4 mps 729 mmHg 88%
    01:00 -2°C° 0 mm 4 mps 729 mmHg 85%
    02:00 -2°C° 0 mm 4 mps 729 mmHg 83%
    03:00 -2°C° 0 mm 5 mps 729 mmHg 82%
    04:00 -2°C° 0 mm 5 mps 729 mmHg 82%
    05:00 -2°C° 0 mm 5 mps 729 mmHg 81%
    06:00 -2°C° 0 mm 5 mps 728 mmHg 83%
    07:00 -2°C° 0 mm 5 mps 728 mmHg 85%
    08:00 -2°C° 0 mm 5 mps 728 mmHg 87%
    09:00 -2°C° 0.1 mm 5 mps 728 mmHg 85%
    10:00 -2°C° 0.1 mm 5 mps 728 mmHg 83%
    11:00 -2°C° 0.1 mm 5 mps 728 mmHg 81%
    12:00 -3°C° 0.3 mm 6 mps 728 mmHg 78%
    13:00 -3°C° 0.3 mm 6 mps 728 mmHg 75%
    14:00 -3°C° 0.3 mm 6 mps 728 mmHg 71%
    15:00 -4°C° 0.1 mm 6 mps 728 mmHg 73%
    16:00 -4°C° 0.1 mm 5 mps 728 mmHg 74%
    17:00 -5°C° 0.1 mm 5 mps 728 mmHg 76%
    18:00 -5°C° 0 mm 5 mps 729 mmHg 77%
    19:00 -5°C° 0 mm 5 mps 730 mmHg 78%
    20:00 -5°C° 0 mm 6 mps 730 mmHg 80%
    21:00 -5°C° 0 mm 6 mps 731 mmHg 80%
    22:00 -5°C° 0 mm 6 mps 732 mmHg 81%
    23:00 -5°C° 0 mm 6 mps 732 mmHg 81%

    26 January, Sunday

    Time Temperature Precipitation Wind Pressure Humidity
    00:00 -6°C° 0 mm 6 mps 733 mmHg 80%
    01:00 -6°C° 0 mm 5 mps 734 mmHg 80%
    02:00 -6°C° 0 mm 5 mps 734 mmHg 79%
    03:00 -6°C° 0 mm 5 mps 735 mmHg 79%
    04:00 -6°C° 0 mm 5 mps 736 mmHg 79%
    05:00 -7°C° 0 mm 4 mps 737 mmHg 80%
    06:00 -7°C° 0 mm 4 mps 737 mmHg 80%
    07:00 -7°C° 0 mm 4 mps 738 mmHg 81%
    08:00 -7°C° 0 mm 4 mps 739 mmHg 81%
    09:00 -5°C° 0 mm 4 mps 740 mmHg 79%
    10:00 -5°C° 0 mm 4 mps 741 mmHg 77%
    11:00 -5°C° 0 mm 4 mps 741 mmHg 75%
    12:00 -4°C° 0 mm 3 mps 742 mmHg 74%
    13:00 -4°C° 0 mm 3 mps 742 mmHg 74%
    14:00 -4°C° 0 mm 3 mps 742 mmHg 73%
    15:00 -5°C° 0 mm 3 mps 742 mmHg 77%
    16:00 -4°C° 0 mm 2 mps 743 mmHg 80%
    17:00 -5°C° 0 mm 2 mps 743 mmHg 84%
    18:00 -5°C° 0 mm 2 mps 743 mmHg 83%
    19:00 -5°C° 0 mm 2 mps 743 mmHg 83%
    20:00 -5°C° 0 mm 2 mps 743 mmHg 82%
    21:00 -4°C° 0 mm 2 mps 743 mmHg 82%
    22:00 -4°C° 0 mm 2 mps 743 mmHg 83%
    23:00 -4°C° 0 mm 2 mps 743 mmHg 83%

    27 January, Monday

    Time Temperature Precipitation Wind Pressure Humidity
    00:00 -4°C° 0.1 mm 2 mps 742 mmHg 87%
    01:00 -3°C° 0.1 mm 2 mps 742 mmHg 91%
    02:00 -4°C° 0.1 mm 3 mps 742 mmHg 96%
    03:00 -2°C° 0.3 mm 3 mps 742 mmHg 96%
    04:00 -2°C° 0.3 mm 3 mps 741 mmHg 97%
    05:00 -1°C° 0.3 mm 3 mps 741 mmHg 97%
    06:00 -1°C° 0.2 mm 3 mps 741 mmHg 97%
    07:00 -2°C° 0.2 mm 4 mps 740 mmHg 97%
    08:00 -1°C° 0.2 mm 4 mps 740 mmHg 97%
    09:00 -1°C° 0.1 mm 4 mps 740 mmHg 97%
    10:00 0°C° 0.1 mm 3 mps 740 mmHg 97%
    11:00 0°C° 0.1 mm 3 mps 740 mmHg 97%
    12:00 0°C° 0.2 mm 3 mps 739 mmHg 97%
    13:00 -1°C° 0.2 mm 3 mps 739 mmHg 97%
    14:00 -1°C° 0.2 mm 3 mps 739 mmHg 97%
    15:00 -1°C° 0.3 mm 3 mps 739 mmHg 97%
    16:00 -1°C° 0.3 mm 3 mps 738 mmHg 97%
    17:00 -1°C° 0.3 mm 3 mps 738 mmHg 97%
    18:00 -1°C° 0.4 mm 3 mps 738 mmHg 97%
    19:00 -1°C° 0.4 mm 3 mps 737 mmHg 97%
    20:00 -1°C° 0.4 mm 3 mps 737 mmHg 98%
    21:00 -1°C° 0.3 mm 2 mps 737 mmHg 98%
    22:00 -1°C° 0.3 mm 2 mps 736 mmHg 98%
    23:00 -1°C° 0.3 mm 2 mps 736 mmHg 98%

    28 January, Tuesday

    Time Temperature Precipitation Wind Pressure Humidity
    00:00 -1°C° 0.2 mm 2 mps 736 mmHg 98%
    01:00 -1°C° 0.2 mm 2 mps 735 mmHg 98%
    02:00 -1°C° 0.2 mm 2 mps 735 mmHg 98%
    03:00 -1°C° 0.2 mm 2 mps 735 mmHg 98%
    04:00 -1°C° 0.2 mm 2 mps 734 mmHg 98%
    05:00 -1°C° 0.2 mm 2 mps 734 mmHg 98%
    06:00 -1°C° 0.2 mm 2 mps 734 mmHg 98%
    07:00 -1°C° 0.2 mm 2 mps 734 mmHg 98%
    08:00 -1°C° 0.2 mm 2 mps 734 mmHg 98%
    09:00 -1°C° 0.1 mm 2 mps 735 mmHg 97%
    10:00 -1°C° 0.1 mm 2 mps 735 mmHg 97%
    11:00 -1°C° 0.1 mm 2 mps 735 mmHg 96%
    12:00 -1°C° 0 mm 2 mps 736 mmHg 97%
    13:00 -1°C° 0 mm 2 mps 736 mmHg 97%
    14:00 -1°C° 0 mm 2 mps 736 mmHg 98%
    15:00 -1°C° 0.1 mm 2 mps 737 mmHg 96%
    16:00 -1°C° 0.1 mm 2 mps 737 mmHg 95%
    17:00 -1°C° 0.1 mm 2 mps 737 mmHg 94%
    18:00 -1°C° 0 mm 2 mps 737 mmHg 93%
    19:00 -2°C° 0 mm 2 mps 738 mmHg 92%
    20:00 -2°C° 0 mm 2 mps 738 mmHg 91%
    21:00 -3°C° 0 mm 2 mps 737 mmHg 91%
    22:00 -4°C° 0 mm 3 mps 737 mmHg 92%
    23:00 -5°C° 0 mm 3 mps 737 mmHg 92%
    Show more